Regional Weather Roundup
Issued by NWS

Home | Current Version | Previous Version | Text Only | Print | Product List | Glossary Off
Versions: 1 2 3 4 5 6 7 8 9 10 11 12 13 14 15 16 17 18 19 20 21 22 23 24 25 26 27 28 29 30 31 32 33 34 35 36 37 38 39 40 41 42 43 44 45 46 47 48 49 50

000
ASUS43 KFSD 160602
RWRSD

WEATHER ROUNDUP FOR SOUTH DAKOTA
NATIONAL WEATHER SERVICE SIOUX FALLS SD
100 AM CDT WED AUG 16 2017

NOTE: "FAIR" INDICATES FEW OR NO CLOUDS BELOW 12,000 FEET WITH NO
SIGNIFICANT WEATHER AND/OR OBSTRUCTIONS TO VISIBILITY.


SDZ001>005-009-010-012>017-160700-
NORTHWEST AND NORTH CENTRAL SOUTH DAKOTA

CITY           SKY/WX    TMP DP  RH WIND       PRES   REMARKS
BUFFALO          N/A     59  55  87 NE8       29.90R
FAITH            N/A     63  63 100 N8        29.89R
MOBRIDGE       CLOUDY    66  64  93 N8        29.81S
$$

SDZ012>016-024>037-041>051-057-063-072>074-160700-
SOUTHWEST AND SOUTH CENTRAL SOUTH DAKOTA

CITY           SKY/WX    TMP DP  RH WIND       PRES   REMARKS
RAPID CTY ARPT CLOUDY    62  55  77 N10       29.94R
PIERRE         LGT RAIN  67  65  93 E6        29.81F
CUSTER         CLOUDY    56  45  66 N10       30.03R
ELLSWORTH AFB  CLOUDY    62  57  84 NW8       29.94R
PHILIP         CLOUDY    66  64  93 W6        29.85F
PINE RIDGE     CLOUDY    63  62  97 CALM      29.93R
SPEARFISH      FAIR      57  54  88 CALM      30.00R
WINNER         LGT RAIN  67  63  87 W14       29.85S
$$

SDZ004>011-016>023-039-040-160700-
NORTHEAST SOUTH DAKOTA

CITY           SKY/WX    TMP DP  RH WIND       PRES   REMARKS
ABERDEEN       CLOUDY    65  64  97 S7        29.84R
WATERTOWN      CLOUDY    64  63  96 SE8       29.86R
BROOKINGS      CLOUDY    65  63  93 SE9       29.87R
SISSETON         N/A     65  63  93 S5        29.87R
$$

SDZ017-020-022-023-036>040-048>070-160700-
SOUTHEAST SOUTH DAKOTA

CITY           SKY/WX    TMP DP  RH WIND       PRES   REMARKS
SIOUX FALLS    CLOUDY    67  66  97 SE6       29.85S
HURON          CLOUDY    66  65  96 SE8       29.82F
CHAMBERLAIN    CLOUDY    67  67 100 SE5       29.85S
MITCHELL       CLOUDY    67  65  93 SE7       29.84S
YANKTON        CLOUDY    66  64  93 SE6       29.84R
$$

ABBREVIATIONS USED IN REMARKS
   TC - TEMPERATURE IN CELSIUS
  WCI - WIND CHILL INDEX
   HX - HEAT INDEX
  VSB - VISIBILITY




USA.gov is the U.S. government's official web portal to all federal, state and local government web resources and services.